Location: *
(46.0770°N, 1.6444°E)
Time: 12:23:39
(UTC+00:00)

Cosmos 2333 - Pass Details

Date: 16 September 2019
Orbit: 831 x 865 km, 70.9° (Epoch: 17 October)

Event Time Altitude Azimuth Distance (km) Brightness Sun altitude
Rises 18:54:13 0° 333° (NNW) 3,400 8.0 -9.5°
Reaches altitude 10° 18:56:40 10° 334° (NNW) 2,466 7.2 -9.9°
Maximum altitude 19:02:20 86° 63° (ENE) 855 4.2 -10.9°
Drops below altitude 10° 19:08:02 10° 153° (SSE) 2,473 6.2 -11.8°
Enters shadow 19:09:36 - 154° (SSE) 3,066 6.7 -12.1°
